CAPE
534 503 838 1219 1348 1392 1371 1649 1749 1742 1995 2282 2380 2408 2400 2440 2565 2641 2698 2696 2795 2818 2730 2616 2427 2156 2080 2077 2048 2449 2626 2540 2376 2172 1784 1760 1690 1584 1146 1022 1262 1118 808 730 672 844 999 1096 1269 1431 1478 1475 1504 1544 1502 1383 1249 993 888 1006 851 704 662 758 921 871 783 739 604 502 474 150 174 236 134 143 192 174 160 201 372 623 758 1132 1565
613 664 946 1308 1464 1575 1486 1626 1818 1854 1952 2196 2326 2390 2376 2378 2578 2540 2658 2664 2660 2634 2589 2500 2335 1980 1923 1997 1982 2064 2182 2086 1962 1606 1788 1769 1710 1623 1278 1136 1076 807 730 689 764 922 1001 1109 1199 1320 1438 1328 1240 1376 1472 1341 1200 1162 1052 866 875 730 818 878 1038 1053 806 754 617 588 472 23 62 402 151 156 112 108 460 288 444 572 590 944 1302
818 834 1040 1348 1518 1691 1606 1619 1793 1863 1919 2104 2277 2294 2286 2299 2702 2671 2723 2644 2601 2537 2570 2492 2322 1964 1858 1890 1922 1868 1755 1618 1402 1433 1762 1676 1911 1940 1788 1237 780 666 712 758 944 1067 1102 1200 1233 1337 1531 1528 1308 1017 945 892 823 959 964 896 945 974 1014 1080 1051 1115 961 841 789 541 24 98 113 508 211 145 104 80 508 143 272 103 108 284 728
972 985 1159 1312 1539 1743 1727 1701 1788 1850 1910 2006 2169 2154 2209 2238 2698 3074 3071 2768 2743 2718 2878 2540 2355 2126 1977 2034 1965 1649 1505 2048 1544 1751 2074 2067 2088 2042 2017 1620 823 628 680 846 1043 1186 1265 1405 1630 1627 1558 1473 1453 1319 1208 1166 978 1024 1142 1132 1092 1072 1170 1021 885 876 975 968 760 441 321 296 246 327 110 153 87 136 436 173 228 36 2 36 128
1078 1096 1271 1329 1480 1713 1818 1845 1889 1925 1924 1944 2067 2082 2130 2222 2480 3186 3507 3176 2980 3175 3279 2715 2578 2369 2288 2282 2065 1985 2016 2062 2026 1978 2235 2402 2372 2116 2106 1718 1198 634 733 884 1070 1244 1396 1658 1873 1999 1776 1690 1662 1518 1370 1262 1173 1167 1062 1147 1170 1188 1054 871 816 1043 1107 1035 940 700 286 218 338 332 237 44 49 162 285 168 286 1 0 18 25
1210 1212 1392 1420 1439 1660 1830 1886 1906 1878 1853 1868 1931 1972 2097 2250 2428 2943 3568 3656 3356 3311 3414 3110 2747 2542 2452 2326 2090 2079 2140 2052 1866 1510 1720 2420 2512 2140 1996 1654 1468 952 821 982 1363 1635 1802 1944 2029 1756 1644 1543 1588 1486 1208 1209 1096 1068 1174 1232 1164 1040 774 749 826 968 1176 1326 1136 805 426 224 371 453 189 9 0 103 189 79 94 0 0 0 0
1338 1370 1536 1544 1490 1720 1925 1969 1936 1842 1792 1801 1931 2100 2198 2274 2460 2765 3213 3654 3780 3652 3654 3545 3147 3019 2775 2396 2133 1938 1759 2072 1933 1108 796 1488 1735 2131 2074 1848 1686 1390 1212 1430 1830 1791 1458 1347 1125 994 952 1100 1470 1339 1195 1269 922 1010 1075 1041 995 816 741 688 615 856 974 926 915 978 845 777 728 633 202 169 0 0 2 0 0 0 0 0 0
1412 1543 1712 1676 1629 1868 2070 2087 2042 1921 1834 1863 2074 2370 2567 2561 2632 2762 3048 3415 3772 4037 4162 4046 3779 3529 2984 2475 2249 2010 1611 1849 1671 837 467 666 816 1159 1325 1143 673 659 839 866 843 719 806 769 663 764 966 1230 1385 1096 1036 1050 951 972 1041 951 1014 1019 1001 919 888 858 669 623 785 872 834 748 720 745 244 224 57 1 0 0 0 0 0 0 0
1446 1637 1860 1851 1776 1985 2164 2226 2189 2067 2000 1999 2136 2402 2729 2901 2902 2924 3047 3380 3655 3903 4129 4163 3895 3124 2579 2487 2304 2067 1799 1535 1197 457 78 94 98 147 385 257 80 62 94 403 548 582 557 101 86 274 607 779 863 339 521 689 934 864 921 853 990 974 1080 1168 1006 720 454 489 430 560 896 831 706 526 423 292 110 0 0 0 0 0 0 0 0
1462 1647 1911 2010 1939 2057 2261 2321 2346 2288 2253 2197 2214 2350 2586 2883 3040 3088 3179 3306 3506 3732 3780 3583 3157 2636 2538 2493 2159 1849 1675 1436 913 154 4 0 0 1 32 44 58 109 98 51 141 250 134 146 46 141 282 571 722 88 160 428 432 566 722 806 858 757 1068 1187 948 790 668 584 672 712 878 607 740 627 435 361 333 109 3 0 0 0 0 0 0
1495 1620 1840 2105 2134 2141 2322 2424 2466 2492 2499 2419 2392 2457 2524 2668 2830 2971 3070 3140 3268 3174 2885 2866 2799 2718 2671 2402 1374 866 1056 804 415 54 0 0 0 1 1 3 1 1 10 20 38 57 50 174 61 98 150 1060 716 30 187 229 344 422 396 459 585 498 696 1042 931 953 968 824 771 846 942 762 513 49 17 212 134 72 2 1 0 0 0 0 0
1519 1654 1758 1964 2264 2341 2355 2414 2492 2578 2665 2641 2581 2584 2626 2641 2676 2778 2829 2918 2943 2743 2679 2778 2832 2770 2553 2199 1169 589 306 2 0 0 0 0 0 56 3 0 0 0 0 19 88 35 158 82 206 249 457 111 95 46 120 174 302 410 354 203 156 344 730 970 943 988 1093 1004 838 818 848 933 884 757 616 642 412 155 14 0 0 0 0 0 0
1498 1686 1810 1901 2140 2412 2476 2455 2457 2551 2684 2768 2762 2707 2690 2691 2674 2672 2740 2817 2808 2549 2514 2636 2648 2402 2230 1762 934 562 78 0 0 0 0 0 0 0 0 0 5 26 24 143 81 63 86 15 20 2 154 230 170 54 100 130 127 110 66 88 67 224 706 726 656 884 1106 1003 718 615 794 952 918 1053 944 708 167 115 1 0 0 0 0 0 0
1466 1684 1883 2026 2105 2314 2516 2532 2507 2518 2597 2701 2753 2731 2693 2698 2676 2634 2662 2704 2700 2556 2468 2395 2194 2088 1966 1329 896 507 24 0 0 0 0 0 0 1 0 0 0 0 59 181 66 27 168 18 98 0 0 16 178 72 55 54 81 156 56 62 16 14 204 466 34 361 826 922 736 476 281 884 981 790 769 90 8 0 0 0 0 0 0 0 0
1444 1636 1894 2152 2225 2277 2453 2563 2565 2540 2559 2602 2647 2711 2678 2651 2670 2674 2653 2577 2505 2517 2504 2333 2174 2104 1805 1374 891 689 411 0 0 0 0 0 0 1 0 0 0 0 68 20 52 4 7 14 53 6 47 38 134 289 507 384 312 314 342 372 424 384 335 418 456 76 444 262 1 6 6 670 732 324 842 0 0 0 0 0 0 0 0 0 0
1450 1625 1840 2185 2354 2356 2401 2529 2568 2527 2506 2556 2606 2673 2664 2613 2623 2702 2635 2462 2386 2410 2448 2323 2210 2094 1916 1350 1002 934 16 0 0 34 0 0 0 0 0 0 0 0 2 10 5 0 1 34 312 100 1 5 26 37 8 10 2 18 28 95 340 417 222 146 451 376 207 16 0 0 17 388 434 147 565 4 0 0 0 0 0 0 0 0 0
1522 1650 1794 2130 2416 2459 2435 2486 2552 2539 2530 2596 2636 2643 2662 2596 2562 2664 2650 2379 2264 2302 2419 2244 2097 2108 1892 1399 1180 948 0 0 0 0 0 0 0 0 0 0 0 0 0 1 0 0 0 18 86 123 0 0 0 8 10 4 8 50 138 102 97 73 318 261 445 440 417 358 269 24 156 52 0 106 205 1 0 0 0 0 0 0 0 0 0
1508 1675 1808 2082 2391 2510 2502 2490 2514 2545 2586 2644 2683 2663 2682 2646 2544 2548 2515 2253 2050 2150 2270 2143 2078 2104 1913 1515 1355 623 0 0 0 0 0 0 0 0 0 0 0 0 0 1 4 0 2 636 23 14 0 0 0 0 9 13 10 10 10 19 42 86 228 388 417 434 232 194 348 252 151 207 0 11 69 0 0 0 0 0 0 0 0 0 0
1335 1620 1803 2055 2352 2502 2560 2548 2554 2577 2636 2671 2710 2728 2718 2685 2574 2460 2370 2164 1949 2006 2142 2139 2125 2140 1912 1553 1515 416 0 0 0 0 0 0 0 0 0 0 0 0 2 9 12 0 0 6 25 2 0 2 1 7 5 0 0 21 19 53 14 10 16 38 324 401 331 199 227 266 255 267 248 76 136 86 32 13 0 0 0 0 0 0 0
1186 1460 1690 1938 2267 2466 2553 2597 2578 2595 2626 2688 2713 2731 2720 2678 2570 2422 2247 2047 1936 1937 1980 2083 2083 1984 1706 1568 1601 180 0 0 0 0 0 0 0 0 0 0 0 0 0 0 0 0 0 0 0 4 2 0 0 0 0 0 0 2 1 0 0 6 62 260 322 368 380 314 228 184 256 338 338 106 33 47 55 16 16 6 3 7 0 0 0
1058 1358 1536 1751 2114 2403 2515 2573 2608 2605 2614 2655 2710 2731 2724 2638 2487 2319 2146 1970 1854 1893 1930 1998 1920 1800 1578 1654 1524 63 0 0 0 0 0 0 0 0 0 0 0 0 0 0 0 0 0 0 0 4 0 0 0 0 0 0 112 96 0 0 0 4 84 330 436 476 386 309 316 338 397 493 504 228 62 64 60 45 40 28 18 14 5 0 0
868 1253 1442 1608 1927 2273 2506 2584 2595 2674 2664 2676 2704 2722 2713 2632 2448 2276 2104 1922 1856 1882 1932 1944 1829 1734 1618 1686 1262 0 0 0 0 0 0 0 0 0 0 0 0 0 0 0 0 0 2 0 0 0 0 0 0 0 0 0 0 0 0 0 0 8 31 309 398 428 390 353 372 413 474 503 401 295 128 112 109 54 54 46 48 42 0 0 17
641 1060 1387 1546 1796 2140 2414 2623 2716 2696 2689 2707 2712 2699 2672 2608 2436 2229 2043 1918 1766 1753 1828 1854 1798 1740 1561 1508 902 0 0 0 0 0 0 172 228 236 193 0 0 0 0 0 0 0 0 0 0 0 0 0 0 0 0 0 0 0 0 0 1 4 5 150 314 320 314 316 350 430 498 540 565 564 484 319 188 164 100 76 65 52 20 0 0
504 794 1185 1520 1714 2020 2346 2607 2750 2795 2764 2674 2678 2702 2669 2624 2461 2222 2027 1887 1746 1589 1640 1699 1687 1603 1422 1386 658 98 56 0 0 0 0 0 0 0 0 0 0 0 0 0 0 0 0 0 0 0 0 0 0 0 0 0 0 0 0 0 0 0 0 4 144 264 282 244 176 220 347 466 532 514 428 342 278 234 188 112 68 47 0 8 38
473 664 933 1268 1631 1982 2305 2568 2748 2833 2802 2719 2664 2690 2694 2650 2530 2304 2082 1936 1808 1728 1591 1488 1423 1456 1346 1230 624 280 248 227 46 239 0 0 0 0 0 0 0 0 0 0 0 0 0 0 0 0 0 0 0 0 0 0 0 0 0 0 0 0 0 0 221 280 269 168 152 195 259 286 298 288 304 328 342 344 250 152 101 85 84 72 45
501 615 747 997 1376 1806 2194 2501 2696 2824 2855 2780 2703 2687 2718 2690 2602 2416 2182 1991 1855 1805 1750 1600 1457 1364 1282 1182 576 308 284 259 147 267 126 0 1 1 1 28 0 0 0 0 0 0 12 0 0 0 0 0 0 0 0 0 0 0 0 0 0 1 0 86 293 287 194 187 225 290 340 382 370 310 267 256 276 291 274 220 171 139 122 123 109
570 666 762 838 1096 1547 1964 2350 2667 2790 2808 2822 2812 2760 2672 2641 2600 2469 2248 2042 1888 1820 1740 1559 1361 1196 1050 1049 622 473 381 366 254 309 212 20 355 60 72 56 100 33 19 6 0 0 14 6 0 0 0 0 0 0 0 0 0 0 0 0 0 0 12 242 260 190 201 287 372 423 442 407 339 277 249 256 244 231 240 242 193 149 147 146 158
668 738 790 869 961 1274 1729 2096 2394 2614 2740 2770 2779 2738 2688 2637 2601 2545 2377 2154 1966 1840 1727 1585 1391 1227 1064 1001 562 511 420 416 291 309 294 261 412 116 106 72 102 89 65 54 25 113 464 0 0 0 0 0 0 0 0 0 0 0 0 0 0 0 127 174 163 188 224 240 248 250 247 252 273 304 315 333 337 364 370 308 216 166 180 240 276
678 778 872 929 998 1076 1393 1802 2114 2407 2633 2732 2746 2740 2722 2686 2643 2562 2436 2262 2042 1894 1728 1575 1413 1238 1053 945 722 495 443 406 338 316 336 374 474 252 121 85 98 137 164 122 498 582 0 0 0 0 0 0 0 0 0 0 0 0 0 0 0 88 144 134 172 238 284 306 294 280 286 335 340 383 363 381 406 452 452 353 273 276 328 362 388
758 785 838 907 996 1084 1181 1543 1899 2194 2436 2597 2709 2744 2714 2706 2646 2561 2456 2298 2119 2003 1838 1674 1461 1314 1124 938 658 493 473 416 318 332 294 409 494 384 182 107 170 198 484 578 687 51 0 0 0 0 0 0 0 0 9 0 0 10 0 0 46 46 0 45 111 138 154 163 173 188 222 308 346 276 364 445 476 502 502 444 400 444 441 432 469
765 873 922 951 991 1030 1112 1300 1644 1944 2191 2401 2483 2564 2618 2646 2628 2589 2495 2360 2224 2062 1952 1815 1625 1348 1178 874 622 465 486 386 341 303 498 548 526 444 462 505 541 559 590 667 794 487 0 0 0 0 0 0 0 0 234 277 24 22 26 0 0 0 0 6 42 54 62 84 100 94 90 100 118 168 301 370 334 396 452 466 517 564 534 490 496
733 820 856 904 944 976 1079 1259 1517 1788 2037 2214 2351 2400 2458 2481 2499 2530 2461 2372 2252 2166 2047 1892 1716 1482 1288 1049 781 497 352 273 432 508 594 656 517 500 516 531 575 632 643 759 796 426 0 0 0 0 0 0 0 204 251 336 101 0 68 15 0 0 0 0 0 24 44 50 36 22 26 39 64 142 318 469 436 347 386 465 495 456 443 486 535
991 1054 1103 1100 1071 1074 1150 1296 1524 1788 1968 2060 2150 2266 2319 2353 2420 2392 2394 2298 2208 2173 2058 1932 1737 1556 1252 1019 686 390 104 0 28 221 1159 728 578 577 586 570 606 618 612 642 617 408 2 0 0 0 2 45 233 285 397 451 316 0 0 0 0 0 0 0 0 0 0 15 12 11 26 66 154 287 403 447 452 457 452 421 393 431 503 588 608
1286 1347 1433 1470 1484 1410 1377 1339 1544 1796 1960 2046 2095 2144 2213 2225 2315 2285 2139 2181 2132 2113 2024 1914 1735 1591 1428 1007 829 442 88 0 7 163 496 798 642 603 638 625 581 528 516 551 546 500 106 2 13 16 104 296 344 389 474 546 555 263 20 0 0 0 0 0 0 0 0 0 0 39 127 233 314 347 355 362 398 440 469 448 397 414 535 677 700
1609 1722 1747 1738 1649 1598 1522 1435 1491 1672 1893 2072 2156 2180 2192 2216 2220 2132 2152 2059 2048 1929 1978 1790 1666 1536 1282 1117 919 532 362 0 0 74 317 714 772 527 516 495 431 346 412 509 585 548 395 50 90 13 328 386 446 468 384 328 302 342 264 117 32 0 0 0 0 0 0 0 72 169 198 201 218 226 226 234 276 348 419 448 390 452 574 618 569
1920 1786 1746 1712 1680 1464 1304 1262 1268 1372 1566 1866 2079 2159 2222 2285 2258 2087 1909 1938 1901 1900 1740 1601 1524 1411 1344 1189 1021 859 516 0 0 92 321 530 836 580 460 424 398 418 473 518 546 453 76 82 8 368 393 442 517 436 346 272 232 287 385 356 80 0 0 0 0 0 0 77 157 86 51 40 46 67 87 130 276 377 426 458 459 522 550 506 493
646 814 820 1200 1397 1390 1312 1235 1167 1115 1243 1531 1792 2025 2167 2229 2252 2246 2083 1876 1684 1540 1434 1400 1380 1326 1261 1132 1038 784 430 39 0 20 152 335 715 890 530 402 445 500 552 534 460 411 339 363 435 462 556 547 490 190 172 220 251 278 373 280 13 0 0 0 0 0 0 49 0 0 0 4 29 29 42 169 378 438 475 522 464 427 289 48 3
493 805 858 1025 1295 1410 1390 1364 1348 1278 1260 1383 1583 1848 2019 2112 2134 2052 1919 1716 1643 1611 1602 1564 1506 1360 1174 1118 826 506 39 57 0 26 222 360 585 807 848 554 529 578 572 546 495 438 404 498 620 550 398 170 237 277 331 566 588 504 294 0 0 0 0 0 0 0 0 0 0 3 14 2 7 27 74 210 165 159 162 184 174 183 0 0 0
550 670 574 909 1310 1473 1492 1580 1588 1543 1455 1462 1573 1735 1865 1956 1999 1982 1928 1863 1791 1782 1788 1648 1476 1330 1122 848 609 326 133 106 29 12 360 520 643 758 829 799 667 647 630 643 615 503 416 463 390 325 205 162 168 304 456 460 392 232 0 0 0 0 0 0 0 0 0 0 0 0 0 0 14 51 84 132 185 222 229 195 0 0 0 0 3
2015 1677 778 1147 1707 1585 1672 1795 1754 1764 1709 1684 1684 1713 1728 1759 1844 1822 1746 1688 1598 1563 1558 1550 1504 1298 1084 844 404 347 419 126 12 210 529 641 830 984 913 776 713 700 734 713 674 517 483 509 476 404 241 65 226 338 321 262 49 0 0 0 0 0 0 0 0 0 0 0 0 0 0 0 28 55 66 65 59 53 0 0 0 1 4 8 1
2400 2332 1908 1572 1673 1629 1601 1739 1768 1832 1842 1827 1768 1738 1709 1652 1645 1611 1510 1468 1453 1438 1408 1323 1332 1401 1258 658 146 62 55 0 29 263 495 675 861 1061 809 768 802 667 741 730 646 600 674 604 533 356 0 0 164 450 346 152 0 0 0 0 0 0 0 0 0 0 0 0 0 0 0 0 0 0 0 0 0 0 0 0 2 2 2 2 2
1776 1817 1742 1648 1551 1485 1586 1660 1752 1856 1820 1830 1821 1760 1651 1539 1468 1446 1339 1256 1288 1342 1320 1325 1365 1276 816 594 139 0 0 51 216 373 488 734 1130 1176 881 622 539 565 598 636 655 685 664 694 315 0 0 74 241 238 93 0 0 0 0 0 0 0 0 0 0 0 0 0 0 0 0 0 0 0 0 0 0 0 0 0 1 1 0 0 0
1579 1480 1264 1277 1276 1322 1256 1472 1585 1740 1806 1854 1794 1645 1533 1446 1356 1197 1030 894 872 948 1060 1114 1046 1075 449 282 162 6 43 36 52 124 191 271 334 416 406 448 574 484 479 626 692 734 494 274 122 2 92 196 8 0 0 0 0 0 0 0 0 0 0 0 0 0 0 0 0 0 0 0 0 0 0 0 0 0 0 0 0 0 0 0 1
1712 1732 1403 1248 1186 1184 1248 1235 1384 1614 1781 1817 1746 1629 1551 1478 1416 1214 1076 1071 1076 1039 906 864 611 376 27 100 298 33 62 130 226 282 348 377 358 288 315 537 485 425 283 386 455 440 253 42 46 27 0 0 0 0 0 0 0 0 0 0 0 0 0 0 0 0 0 0 0 0 0 0 0 0 0 0 0 0 0 0 0 0 0 1 2
2009 1812 1640 1464 1370 1356 1321 1398 1452 1594 1719 1789 1799 1750 1634 1545 1416 1320 1279 1316 1318 1027 742 540 462 388 44 245 232 177 115 258 328 388 312 348 319 487 420 574 501 411 330 276 354 132 51 286 0 0 0 0 0 0 0 0 0 0 0 0 0 0 0 0 0 0 0 0 0 0 0 0 0 0 0 0 0 0 2 0 0 0 0 2 0
1845 1935 1880 1640 1705 1675 1622 1569 1602 1654 1710 1683 1729 1704 1684 1658 1568 1495 1486 1388 965 783 627 502 93 104 370 280 168 8 236 55 83 140 188 296 454 514 387 520 485 404 362 328 0 10 332 294 121 0 0 0 0 0 0 0 0 0 0 0 0 0 0 0 0 0 0 0 0 0 0 0 0 0 0 0 0 0 0 0 0 0 0 0 0
1076 1633 1563 1400 1307 1467 1546 1648 1624 1626 1652 1713 1717 1710 1669 1611 1506 1482 1451 1323 994 916 853 610 4 60 0 57 0 0 0 1 47 194 189 248 399 443 440 329 246 258 122 103 116 256 253 0 0 0 0 0 0 0 0 0 0 0 0 0 0 0 0 0 0 0 0 0 0 0 0 0 0 0 0 0 0 0 0 0 0 0 2 2 2
861 1430 1540 1505 1488 1468 1624 1668 1654 1601 1614 1577 1471 1391 1312 1342 1379 1473 1469 1257 898 712 688 594 376 20 121 39 152 26 0 0 9 128 276 330 195 34 0 0 0 53 177 116 0 0 0 0 0 0 0 0 0 0 0 0 0 0 0 0 0 0 0 0 0 0 0 0 0 0 0 0 2 0 0 0 0 0 0 0 1 4 6 3 2
687 902 1127 1371 1260 1306 1363 1365 1356 1361 1352 1308 1248 1146 1054 1188 1205 1243 1052 586 194 0 0 0 0 0 3 17 0 0 0 0 0 0 2 2 0 0 0 0 0 0 0 0 0 0 0 0 0 0 0 0 0 0 0 0 0 0 0 0 0 0 0 0 0 0 0 0 0 0 0 0 0 0 0 0 0 0 0 0 1 0 1 2 2
194 925 1132 1074 1048 1059 1009 1030 1070 1070 1098 1016 922 773 701 785 866 848 632 10 0 0 0 0 0 0 0 0 1 0 0 0 0 0 0 0 1 0 0 0 0 0 0 0 0 0 0 0 0 0 0 0 0 0 0 0 0 0 0 0 0 0 0 0 0 0 0 0 0 0 0 0 0 0 0 0 0 0 0 0 0 0 0 0 0
592 846 904 920 859 893 921 931 928 932 935 913 824 722 651 635 677 650 459 0 0 0 0 0 0 0 0 0 0 0 0 0 0 0 0 0 0 0 0 0 0 0 0 0 0 0 0 0 0 0 0 0 0 0 0 0 0 0 0 0 0 0 0 0 0 0 0 0 0 0 0 0 0 0 0 0 0 0 0 0 0 0 0 0 0
Wind_Speed
12 13 11 11 9 7 5 4 4 5 4 5 6 6 6 7 6 8 7 7 7 7 7 7 6 4 3 6 7 7 7 5 6 6 7 9 11 11 13 14 15 16 16 13 13 13 13 13 13 13 14 14 15 15 14 14 17 18 17 16 16 14 14 19 19 21 19 19 21 22 19 21 21 21 21 20 21 22 22 19 17 15 13 14 17
8 8 10 10 9 9 8 7 6 7 4 5 6 6 4 4 6 7 5 7 8 9 8 6 5 7 7 9 6 7 7 8 6 7 10 10 11 12 12 13 14 14 13 14 14 15 15 15 15 14 15 15 15 15 15 15 16 16 17 15 19 17 15 18 20 24 21 23 21 19 21 nan nan 23 22 20 19 20 22 21 19 17 15 15 17
9 11 12 10 11 12 12 10 8 9 8 7 5 4 2 3 4 4 5 6 6 7 6 6 5 5 7 6 9 6 6 7 9 11 13 13 14 14 14 15 15 15 15 17 17 17 17 17 16 16 16 16 16 16 16 16 17 17 18 19 17 21 19 18 19 24 21 23 23 25 nan nan 19 22 21 21 21 nan 21 21 20 19 17 17 18
14 13 13 12 11 12 12 12 10 8 7 6 5 4 2 2 3 4 5 5 5 6 7 7 8 6 6 9 8 10 10 11 12 14 15 16 17 17 17 17 18 18 19 20 19 19 19 19 19 19 19 19 19 17 18 17 17 17 19 20 21 18 20 19 20 22 23 23 21 25 25 24 23 24 21 19 nan 21 22 20 21 nan nan nan 21
15 14 13 13 13 13 14 13 12 11 9 8 7 5 3 4 4 5 5 6 6 8 10 10 11 11 11 11 11 12 11 13 14 13 15 16 18 18 18 19 20 20 20 20 20 20 21 21 21 21 21 21 20 20 19 19 19 20 21 22 22 22 21 21 20 21 23 24 25 25 25 25 26 26 25 nan nan 22 22 21 21 nan nan nan nan
15 16 17 17 16 12 11 12 13 12 11 9 8 7 5 5 6 6 5 7 8 10 12 14 13 15 14 14 14 12 13 15 17 16 17 18 19 19 19 20 21 20 21 22 22 22 23 23 23 23 23 23 23 22 21 20 19 20 21 24 23 24 25 23 21 21 23 22 26 26 27 27 25 25 27 nan nan 26 26 nan nan nan nan nan nan
11 14 16 17 16 15 13 12 13 13 12 11 10 8 8 7 8 8 8 9 10 12 14 15 15 15 17 17 17 17 18 14 16 18 22 19 21 23 22 21 21 23 23 24 24 24 24 25 24 24 24 24 22 22 21 21 20 21 22 25 25 26 27 25 25 24 23 24 25 25 25 27 28 27 26 25 nan nan nan nan nan nan nan nan nan
12 13 16 17 18 18 17 15 14 14 13 14 12 11 10 10 11 10 11 12 13 15 17 17 17 17 17 17 18 19 20 20 20 22 22 24 25 24 25 23 23 23 24 24 25 26 27 27 27 26 25 24 23 24 22 21 21 21 23 23 24 26 28 26 25 25 25 24 26 27 26 27 29 28 28 27 nan nan nan nan nan nan nan nan nan
13 12 14 16 17 18 19 18 15 14 15 15 14 14 14 14 14 14 14 16 17 19 19 19 19 20 20 21 20 19 20 23 24 24 nan nan nan 25 26 25 nan nan nan 27 27 28 29 29 nan 27 26 25 24 24 23 22 24 25 25 26 26 26 28 27 28 27 27 26 26 26 27 29 29 29 30 29 27 nan nan nan nan nan nan nan nan
15 12 12 14 15 16 18 19 18 16 17 17 16 16 17 17 17 18 17 19 20 20 21 21 21 22 23 23 25 24 24 25 27 29 nan nan nan nan nan nan nan 24 nan nan 28 30 30 29 nan 28 26 25 24 nan 26 26 26 26 26 27 28 28 27 29 28 28 29 28 28 28 28 28 29 29 29 30 28 28 nan nan nan nan nan nan nan
21 17 13 12 14 17 19 20 19 18 18 19 18 18 19 19 19 19 19 21 22 22 23 23 23 24 25 27 29 30 29 30 31 nan nan nan nan nan nan nan nan nan nan nan nan nan nan 28 nan nan 25 24 24 nan 25 26 26 28 29 29 29 30 30 30 28 28 28 28 28 29 29 31 31 nan nan 31 31 nan nan nan nan nan nan nan nan
22 20 16 14 15 15 16 17 18 18 19 20 20 20 21 21 22 21 22 23 24 25 26 26 27 27 28 30 32 33 33 nan nan nan nan nan nan nan nan nan nan nan nan nan nan nan 29 nan 28 26 24 23 nan nan 24 25 26 28 29 29 29 29 28 30 29 28 28 29 28 30 32 32 33 34 33 35 34 32 nan nan nan nan nan nan nan
20 19 17 16 15 15 15 15 16 17 18 19 20 21 21 22 23 23 22 25 26 28 29 29 30 30 31 31 30 30 nan nan nan nan nan nan nan nan nan nan nan nan nan 34 nan nan nan nan nan nan 23 22 22 nan 23 26 28 29 nan nan nan 31 31 31 30 29 30 31 30 31 33 33 34 35 36 36 36 37 nan nan nan nan nan nan nan
20 18 15 15 14 13 14 15 16 17 19 20 20 20 21 22 22 22 22 24 25 26 27 28 27 29 30 28 26 26 nan nan nan nan nan nan nan nan nan nan nan nan nan 33 nan nan 28 nan nan nan nan nan 22 nan nan nan nan 29 nan nan nan nan 34 34 nan 32 32 32 33 34 34 34 34 37 38 nan nan nan nan nan nan nan nan nan nan
21 19 16 13 14 15 16 17 17 19 21 21 20 20 21 21 21 21 22 24 25 25 24 24 24 25 25 24 24 24 25 nan nan nan nan nan nan nan nan nan nan nan nan nan nan nan nan nan nan nan nan nan 22 24 24 26 27 29 30 32 33 36 37 37 37 nan 37 36 nan nan nan 36 36 38 39 nan nan nan nan nan nan nan nan nan nan
22 22 17 13 14 15 16 17 17 18 20 20 19 20 20 21 21 21 23 24 26 26 24 23 24 24 24 24 24 26 nan nan nan nan nan nan nan nan nan nan nan nan nan nan nan nan nan nan 25 24 nan nan nan nan nan nan nan nan nan nan 33 35 36 37 38 39 37 nan nan nan nan 39 40 40 41 nan nan nan nan nan nan nan nan nan nan
23 23 19 16 15 17 18 18 17 16 18 18 19 20 21 22 22 22 23 24 25 26 26 25 27 27 26 26 27 28 nan nan nan nan nan nan nan nan nan nan nan nan nan nan nan nan nan nan nan 24 nan nan nan nan nan nan nan nan 32 33 nan nan 38 37 39 39 36 37 38 nan 41 nan nan 42 43 nan nan nan nan nan nan nan nan nan nan
25 25 23 20 19 20 20 19 18 17 17 18 19 19 19 21 23 26 25 26 25 27 29 30 31 30 29 29 30 32 nan nan nan nan nan nan nan nan nan nan nan nan nan nan nan nan nan 25 nan nan nan nan nan nan nan nan nan nan nan nan nan nan 38 39 41 41 39 39 39 39 40 40 nan nan nan nan nan nan nan nan nan nan nan nan nan
20 20 20 19 18 17 17 16 16 14 13 15 16 18 17 18 20 23 27 28 30 29 30 30 32 31 31 33 33 32 nan nan nan nan nan nan nan nan nan nan nan nan nan nan nan nan nan nan nan nan nan nan nan nan nan nan nan nan nan nan nan nan nan nan 40 41 40 41 41 40 41 41 42 nan 43 nan nan nan nan nan nan nan nan nan nan
17 17 19 20 20 19 18 15 13 13 12 12 15 16 17 19 21 22 22 23 25 27 29 31 32 33 35 35 33 35 nan nan nan nan nan nan nan nan nan nan nan nan nan nan nan nan nan nan nan nan nan nan nan nan nan nan nan nan nan nan nan nan nan 40 40 40 40 42 42 43 43 43 46 46 nan nan nan nan nan nan nan nan nan nan nan
15 17 19 21 22 20 17 14 13 12 12 13 15 17 18 19 20 22 25 27 29 30 31 31 33 34 37 37 38 nan nan nan nan nan nan nan nan nan nan nan nan nan nan nan nan nan nan nan nan nan nan nan nan nan nan nan 34 nan nan nan nan nan nan 39 39 39 41 43 44 45 45 46 47 48 nan nan nan nan nan nan nan nan nan nan nan
17 21 20 21 23 22 19 16 12 11 10 11 11 12 15 18 21 24 26 27 29 31 32 32 33 35 36 36 37 nan nan nan nan nan nan nan nan nan nan nan nan nan nan nan nan nan nan nan nan nan nan nan nan nan nan nan nan nan nan nan nan nan nan 39 40 39 41 45 46 46 45 48 51 51 51 50 50 nan nan nan nan nan nan nan nan
20 22 19 19 21 22 20 20 20 20 17 15 13 14 17 20 22 24 26 28 30 32 32 33 35 35 36 37 39 nan nan nan nan nan nan 31 31 31 31 nan nan nan nan nan nan nan nan nan nan nan nan nan nan nan nan nan nan nan nan nan nan nan nan 40 40 41 43 45 46 46 46 49 50 49 48 48 48 47 45 nan nan nan nan nan nan
19 21 18 19 19 17 14 14 18 21 19 18 16 15 16 18 20 22 25 29 31 32 35 36 37 37 38 40 42 nan nan nan nan nan nan nan nan nan nan nan nan nan nan nan nan nan nan nan nan nan nan nan nan nan nan nan nan nan nan nan nan nan nan nan 42 42 44 45 45 46 46 48 48 46 45 45 44 44 44 44 nan nan nan nan nan
20 21 19 18 17 16 14 14 19 22 20 18 18 17 18 19 21 23 26 30 32 34 37 38 39 40 41 43 44 46 45 42 nan 34 nan nan nan nan nan nan nan nan nan nan nan nan nan nan nan nan nan nan nan nan nan nan nan nan nan nan nan nan nan nan 43 44 44 45 47 48 47 47 47 45 43 42 42 43 44 45 43 nan nan nan nan
24 26 21 20 21 20 17 17 19 22 21 19 20 21 22 23 25 27 29 32 34 36 38 39 40 42 43 45 47 47 46 44 38 35 37 nan nan nan nan nan nan nan nan nan nan nan nan nan nan nan nan nan nan nan nan nan nan nan nan nan nan nan nan nan 43 44 45 46 48 47 45 45 46 45 42 41 41 42 44 44 44 44 46 47 48
28 30 27 24 21 23 23 23 25 25 22 22 25 26 27 29 31 32 34 36 37 38 39 40 41 43 45 47 48 47 46 43 40 38 38 nan 38 nan nan nan 38 nan nan nan nan nan nan nan nan nan nan nan nan nan nan nan nan nan nan nan nan nan nan 42 43 44 46 47 47 45 42 42 42 42 41 41 41 42 44 44 44 45 46 48 47
26 27 29 30 30 30 29 28 26 25 23 23 24 28 33 37 40 40 41 42 41 41 42 41 43 44 46 49 49 49 48 44 41 40 40 40 39 36 34 nan 39 nan nan nan nan 31 32 nan nan nan nan nan nan nan nan nan nan nan nan nan nan nan 40 41 43 45 46 46 45 43 41 40 41 41 41 40 42 42 43 43 44 46 46 48 46
28 29 31 32 32 32 33 31 29 28 29 31 32 35 36 37 39 41 42 44 45 45 44 45 46 47 48 49 49 49 49 46 43 41 40 41 40 36 34 nan nan 35 35 33 32 32 nan nan nan nan nan nan nan nan nan nan nan nan nan nan nan nan 43 43 45 45 46 45 43 42 41 39 39 39 40 41 41 43 43 43 42 46 47 47 45
30 31 32 32 33 34 34 34 32 32 34 35 36 38 39 42 45 48 47 46 46 45 46 47 47 47 49 49 48 50 50 47 44 41 40 42 40 35 33 34 33 33 33 32 31 nan nan nan nan nan nan nan nan nan nan nan nan nan nan nan nan nan nan nan 47 45 42 42 42 40 39 37 36 36 37 38 38 39 40 42 42 45 47 46 44
30 30 30 31 31 31 32 33 34 34 35 37 39 41 42 45 48 50 49 48 47 47 48 47 47 49 50 49 49 51 51 46 42 42 41 40 38 35 34 33 32 31 31 31 32 33 nan nan nan nan nan nan nan nan 35 37 nan nan nan nan nan nan nan nan nan nan nan nan 38 nan nan 37 36 36 36 35 37 38 37 37 38 40 43 46 43
31 31 32 32 31 31 33 35 37 38 38 39 41 43 44 46 50 51 49 46 44 48 49 47 48 50 50 51 52 52 48 45 44 42 39 37 37 37 35 33 31 30 30 32 32 32 nan nan nan nan nan nan nan 35 36 36 39 nan nan nan nan nan nan nan nan nan nan nan nan nan nan nan nan 39 38 38 37 37 38 38 38 40 39 40 39
33 35 35 34 33 34 35 36 38 40 40 41 43 44 45 49 50 48 47 46 46 48 48 46 47 47 48 50 52 49 51 nan nan 39 39 38 38 38 38 35 31 30 32 33 31 32 nan nan nan nan nan nan 35 35 34 37 43 nan nan nan nan nan nan nan nan nan nan nan nan nan nan nan 38 36 37 38 39 38 37 36 38 39 38 37 36
35 36 36 35 34 36 37 39 40 40 40 41 43 43 44 49 50 47 47 45 44 43 44 46 48 48 52 55 50 51 nan nan nan 42 42 40 39 39 37 34 30 31 32 32 32 32 33 nan nan nan 38 38 39 40 41 42 43 48 nan nan nan nan nan nan nan nan nan nan nan nan 39 37 36 37 37 37 38 39 39 38 39 39 35 32 32
38 37 34 35 37 38 39 40 40 40 43 46 46 46 49 50 47 44 42 42 44 46 48 51 53 54 55 56 55 53 51 nan nan nan 42 40 38 35 31 29 30 31 32 32 32 32 32 nan nan nan 38 37 38 40 43 44 46 48 49 53 nan nan nan nan nan nan nan nan nan 42 40 37 35 35 36 37 39 39 40 39 37 33 30 30 32
40 39 34 36 38 40 42 41 40 44 45 47 46 49 51 48 45 42 43 45 46 48 50 53 54 53 53 55 57 53 52 nan nan nan 47 42 33 27 24 27 31 31 32 33 32 32 nan nan nan 38 39 38 38 38 41 44 47 49 50 51 nan nan nan nan nan nan nan nan 44 nan nan nan nan nan nan 32 37 39 40 37 32 28 26 27 29
39 38 36 37 41 42 42 44 45 43 45 45 48 51 52 50 47 44 47 49 50 51 52 53 53 52 52 54 56 56 53 nan nan nan 44 35 24 21 24 29 32 33 35 33 31 35 39 40 39 39 38 35 34 34 40 45 48 50 51 51 nan nan nan nan nan nan nan nan nan nan nan nan nan nan nan 34 37 40 39 35 30 26 25 nan nan
39 37 39 42 43 46 47 48 47 46 46 50 52 52 50 49 47 46 49 51 52 52 52 53 53 53 55 59 58 55 nan nan nan nan 30 24 20 25 28 33 34 34 34 31 33 37 39 38 39 40 38 35 35 39 45 48 50 50 51 nan nan nan nan nan nan nan nan nan nan nan nan nan nan nan nan 40 40 39 36 31 27 24 nan nan nan
37 40 41 43 45 47 48 48 49 49 51 54 54 54 53 50 49 49 51 54 53 53 53 55 56 56 56 53 50 46 47 46 nan nan 23 23 26 32 34 37 32 33 32 34 36 40 39 38 40 41 38 39 40 41 47 50 51 51 nan nan nan nan nan nan nan nan nan nan nan nan nan nan nan nan nan 38 38 36 33 29 nan nan nan nan nan
43 44 46 50 50 51 51 49 48 49 53 57 57 55 54 52 51 54 55 55 55 55 55 58 61 60 55 50 44 40 40 39 nan 21 25 27 30 37 38 30 28 34 36 35 37 39 37 36 38 35 36 nan 43 43 47 51 nan nan nan nan nan nan nan nan nan nan nan nan nan nan nan nan nan nan nan nan nan nan nan nan nan nan nan nan nan
49 50 52 53 47 49 51 48 48 52 55 57 58 56 53 51 52 53 52 52 52 53 56 59 61 58 52 44 41 nan nan nan nan 23 29 37 43 37 32 33 40 43 42 40 41 39 38 37 38 36 nan nan 47 48 50 54 nan nan nan nan nan nan nan nan nan nan nan nan nan nan nan nan nan nan nan nan nan nan nan nan nan nan nan nan nan
53 56 56 53 50 48 48 48 50 54 56 59 59 54 49 49 51 54 55 52 48 46 48 51 54 53 46 43 41 nan nan nan 30 35 43 46 45 43 40 45 48 45 43 41 39 38 38 37 36 nan nan nan 48 52 nan nan nan nan nan nan nan nan nan nan nan nan nan nan nan nan nan nan nan nan nan nan nan nan nan nan nan nan nan nan nan
55 56 55 55 52 49 49 50 53 54 54 53 51 49 49 53 58 54 53 54 52 48 44 43 43 40 39 38 38 nan nan nan nan 42 45 44 42 43 42 41 41 36 34 32 32 35 38 40 45 nan nan 46 nan nan nan nan nan nan nan nan nan nan nan nan nan nan nan nan nan nan nan nan nan nan nan nan nan nan nan nan nan nan nan nan nan
54 55 56 57 58 60 58 55 53 51 51 50 51 52 53 54 51 46 47 46 46 46 46 41 36 35 nan nan 33 nan nan 37 42 45 43 40 39 38 37 38 36 36 35 36 35 38 42 nan nan nan nan nan nan nan nan nan nan nan nan nan nan nan nan nan nan nan nan nan nan nan nan nan nan nan nan nan nan nan nan nan nan nan nan nan nan
54 55 58 61 64 62 60 56 51 50 49 51 53 55 52 47 42 43 44 44 43 42 41 39 36 36 nan 36 34 36 37 42 47 46 40 32 31 36 39 40 41 38 36 36 38 43 nan 48 nan nan nan nan nan nan nan nan nan nan nan nan nan nan nan nan nan nan nan nan nan nan nan nan nan nan nan nan nan nan nan nan nan nan nan nan nan
55 59 61 64 64 61 58 56 51 50 52 51 52 52 51 43 41 43 43 44 44 44 42 41 nan 38 37 37 37 nan 38 nan nan 47 43 39 40 47 51 47 42 38 35 38 nan nan 48 47 47 nan nan nan nan nan nan nan nan nan nan nan nan nan nan nan nan nan nan nan nan nan nan nan nan nan nan nan nan nan nan nan nan nan nan nan nan
56 56 60 61 61 60 54 50 49 48 52 53 52 50 49 45 45 44 44 44 45 46 44 42 nan nan nan nan nan nan nan nan nan 51 49 46 50 53 51 44 39 37 37 44 51 49 46 nan nan nan nan nan nan nan nan nan nan nan nan nan nan nan nan nan nan nan nan nan nan nan nan nan nan nan nan nan nan nan nan nan nan nan nan nan nan
54 55 55 58 61 59 50 45 47 48 51 53 53 51 50 49 45 44 44 45 46 46 45 44 43 nan 36 nan 44 nan nan nan nan 53 52 50 48 nan nan nan nan nan 47 56 nan nan nan nan nan nan nan nan nan nan nan nan nan nan nan nan nan nan nan nan nan nan nan nan nan nan nan nan nan nan nan nan nan nan nan nan nan nan nan nan nan
52 55 56 58 57 54 47 45 46 46 49 51 51 50 49 49 46 46 47 48 46 nan nan nan nan nan nan nan nan nan nan nan nan nan nan nan nan nan nan nan nan nan nan nan nan nan nan nan nan nan nan nan nan nan nan nan nan nan nan nan nan nan nan nan nan nan nan nan nan nan nan nan nan nan nan nan nan nan nan nan nan nan nan nan nan
52 53 55 50 45 45 43 43 43 44 48 51 51 49 48 47 46 46 48 nan nan nan nan nan nan nan nan nan nan nan nan nan nan nan nan nan nan nan nan nan nan nan nan nan nan nan nan nan nan nan nan nan nan nan nan nan nan nan nan nan nan nan nan nan nan nan nan nan nan nan nan nan nan nan nan nan nan nan nan nan nan nan nan nan nan
47 46 43 40 38 37 40 41 41 43 47 50 50 49 49 47 47 46 49 nan nan nan nan nan nan nan nan nan nan nan nan nan nan nan nan nan nan nan nan nan nan nan nan nan nan nan nan nan nan nan nan nan nan nan nan nan nan nan nan nan nan nan nan nan nan nan nan nan nan nan nan nan nan nan nan nan nan nan nan nan nan nan nan nan nan
Wind_Direction
12 7 6 7 3 358 347 338 355 359 353 6 23 34 24 13 4 18 21 10 3 9 16 8 9 13 20 20 16 10 1 359 349 345 342 344 344 352 347 353 355 355 0 358 355 345 343 340 340 338 329 329 339 346 341 334 343 341 336 337 345 348 337 334 338 335 335 332 332 335 336 337 338 332 335 338 342 347 341 340 336 323 310 293 280
353 360 5 1 354 342 332 332 331 337 349 358 14 22 16 358 1 14 10 9 9 7 5 2 7 13 3 14 2 354 358 353 344 343 344 342 345 348 349 351 351 356 351 348 345 343 344 344 340 336 328 333 336 338 337 341 341 334 335 337 329 340 338 330 329 323 325 327 321 320 323 nan nan 321 321 324 329 332 333 335 332 321 305 292 279
347 0 355 356 351 342 336 336 335 340 340 353 6 1 354 350 359 354 4 4 8 357 334 349 356 355 354 344 346 327 325 324 327 335 338 338 340 341 343 348 348 345 345 343 343 343 339 335 334 332 334 335 336 334 334 340 337 337 338 336 331 328 335 334 334 325 325 320 322 318 nan nan 316 311 321 319 323 nan 325 322 324 322 316 309 297
340 344 347 347 345 343 339 335 331 323 328 334 338 352 327 330 327 336 356 358 346 335 328 338 335 313 293 299 303 307 321 318 311 315 322 324 330 333 337 341 337 340 342 341 339 336 333 333 332 331 332 335 332 330 331 340 335 335 335 338 336 331 321 319 320 321 324 320 316 316 317 318 318 320 318 326 nan 317 314 314 319 nan nan nan 311
329 330 331 334 336 343 345 339 323 325 329 332 327 325 295 333 330 332 337 341 328 323 325 309 287 282 283 280 287 287 284 294 297 302 312 319 317 322 332 328 331 334 333 333 333 333 332 334 331 330 327 326 326 327 330 336 337 336 334 330 331 327 323 318 314 314 320 320 316 311 310 312 321 323 318 nan nan 315 315 312 314 nan nan nan nan
323 329 329 328 331 329 330 329 326 325 326 324 318 316 304 309 309 315 311 313 316 315 311 297 301 302 300 301 303 300 304 304 308 314 315 317 319 319 318 322 326 324 325 327 329 328 331 332 328 323 321 320 321 325 326 324 328 330 330 328 326 325 321 315 315 311 313 314 312 311 312 315 320 320 317 nan nan 320 316 nan nan nan nan nan nan
312 314 313 316 321 320 324 324 325 322 322 306 300 301 306 302 304 310 310 299 295 297 295 291 295 303 312 316 314 316 315 313 307 309 311 311 304 309 313 312 314 316 317 320 322 321 320 319 319 318 315 313 314 313 316 321 324 326 322 321 327 321 316 318 315 316 314 312 311 309 311 313 315 315 318 319 nan nan nan nan nan nan nan nan nan
319 319 318 317 315 317 317 316 314 318 306 292 293 291 298 296 288 294 286 284 282 283 289 293 298 301 303 303 304 307 311 312 306 305 299 299 300 301 301 302 303 305 307 309 312 314 313 315 314 312 310 309 309 313 318 319 317 317 319 320 318 318 319 321 317 311 310 309 307 308 312 312 312 312 312 311 nan nan nan nan nan nan nan nan nan
328 316 318 316 318 317 307 306 310 304 292 291 292 291 289 284 284 279 281 277 277 282 287 290 292 296 298 295 296 295 298 300 298 295 nan nan nan 291 293 296 nan nan nan 309 309 310 313 314 nan 310 310 312 311 313 315 315 319 322 320 319 321 320 319 319 313 315 314 310 307 306 306 306 307 310 311 310 308 nan nan nan nan nan nan nan nan
331 328 321 318 313 311 308 303 300 299 291 290 288 283 283 279 281 282 282 278 277 280 284 286 286 287 289 291 293 292 290 289 294 297 nan nan nan nan nan nan nan 300 nan nan 307 311 313 314 nan 314 315 316 315 nan 318 318 318 319 320 320 320 319 321 320 320 317 316 311 310 309 308 308 305 307 308 309 311 309 nan nan nan nan nan nan nan
331 325 318 315 305 301 297 308 308 294 285 286 284 283 281 282 285 287 288 282 281 284 285 288 286 288 291 295 296 296 295 295 294 nan nan nan nan nan nan nan nan nan nan nan nan nan nan 315 nan nan 315 317 317 nan 317 316 318 319 320 319 317 319 321 322 321 316 313 311 311 312 312 310 311 nan nan 311 311 nan nan nan nan nan nan nan nan
330 323 317 309 294 289 292 301 300 297 288 287 285 284 284 285 286 291 288 288 286 287 288 290 291 291 291 296 299 301 301 nan nan nan nan nan nan nan nan nan nan nan nan nan nan nan 314 nan 314 312 312 312 nan nan 314 315 315 316 316 316 317 320 320 319 319 317 315 314 315 314 313 314 314 314 315 315 314 313 nan nan nan nan nan nan nan
331 327 316 308 312 307 301 300 295 297 296 295 296 292 291 290 293 297 297 293 292 290 293 294 294 294 293 296 298 301 nan nan nan nan nan nan nan nan nan nan nan nan nan 307 nan nan nan nan nan nan 309 311 312 nan 313 313 314 315 nan nan nan 320 322 320 318 320 318 317 318 315 314 316 318 317 315 316 314 312 nan nan nan nan nan nan nan
341 330 319 316 318 311 302 297 300 299 300 303 306 303 298 295 299 304 307 300 295 295 298 300 301 298 297 298 299 300 nan nan nan nan nan nan nan nan nan nan nan nan nan 308 nan nan 312 nan nan nan nan nan 309 nan nan nan nan 314 nan nan nan nan 321 321 nan 319 319 320 315 314 316 317 318 316 317 nan nan nan nan nan nan nan nan nan nan
349 341 328 319 320 314 302 300 301 303 307 306 304 305 299 298 302 308 311 308 307 309 307 312 308 305 304 302 300 298 300 nan nan nan nan nan nan nan nan nan nan nan nan nan nan nan nan nan nan nan nan nan 309 308 308 308 310 312 317 320 321 321 322 322 322 nan 323 321 nan nan nan 317 319 318 316 nan nan nan nan nan nan nan nan nan nan
350 350 342 323 310 303 295 296 301 302 305 300 302 300 300 304 309 317 321 316 316 318 320 320 316 313 312 310 308 305 nan nan nan nan nan nan nan nan nan nan nan nan nan nan nan nan nan nan 305 309 nan nan nan nan nan nan nan nan nan nan 321 319 321 322 324 323 324 nan nan nan nan 321 320 319 318 nan nan nan nan nan nan nan nan nan nan
346 348 340 326 305 296 294 298 299 297 293 297 302 306 314 315 318 325 325 319 322 323 323 322 318 314 315 314 311 310 nan nan nan nan nan nan nan nan nan nan nan nan nan nan nan nan nan nan nan 311 nan nan nan nan nan nan nan nan 315 317 nan nan 320 324 319 318 321 321 321 nan 323 nan nan 319 317 nan nan nan nan nan nan nan nan nan nan
348 344 336 325 314 310 302 297 299 301 304 304 308 312 317 323 328 331 328 326 322 321 325 323 319 315 311 312 314 315 nan nan nan nan nan nan nan nan nan nan nan nan nan nan nan nan nan 306 nan nan nan nan nan nan nan nan nan nan nan nan nan nan 319 319 319 322 323 321 321 321 320 322 nan nan nan nan nan nan nan nan nan nan nan nan nan
340 338 332 324 312 307 305 305 309 310 313 314 319 321 319 322 326 330 333 332 332 330 325 316 314 310 309 311 313 314 nan nan nan nan nan nan nan nan nan nan nan nan nan nan nan nan nan nan nan nan nan nan nan nan nan nan nan nan nan nan nan nan nan nan 321 320 321 320 322 323 323 324 319 nan 316 nan nan nan nan nan nan nan nan nan nan
339 342 350 348 338 328 321 317 314 323 322 324 325 321 330 333 332 331 328 324 324 325 321 322 320 313 309 307 309 311 nan nan nan nan nan nan nan nan nan nan nan nan nan nan nan nan nan nan nan nan nan nan nan nan nan nan nan nan nan nan nan nan nan 318 318 319 320 321 323 325 326 325 320 322 nan nan nan nan nan nan nan nan nan nan nan
341 347 0 4 358 352 341 335 335 330 329 325 324 334 340 333 332 331 330 331 330 327 324 326 320 314 312 315 311 nan nan nan nan nan nan nan nan nan nan nan nan nan nan nan nan nan nan nan nan nan nan nan nan nan nan nan 313 nan nan nan nan nan nan 318 319 321 322 324 326 326 327 327 324 321 nan nan nan nan nan nan nan nan nan nan nan
346 352 360 3 2 0 360 352 342 343 339 336 333 329 329 331 336 333 332 330 329 327 327 323 320 317 315 307 307 nan nan nan nan nan nan nan nan nan nan nan nan nan nan nan nan nan nan nan nan nan nan nan nan nan nan nan nan nan nan nan nan nan nan 321 321 324 325 324 324 325 325 323 322 325 323 323 322 nan nan nan nan nan nan nan nan
350 353 355 349 351 359 359 356 360 359 356 352 341 338 338 340 336 331 333 335 330 328 323 319 320 317 311 307 303 nan nan nan nan nan nan 302 299 299 302 nan nan nan nan nan nan nan nan nan nan nan nan nan nan nan nan nan nan nan nan nan nan nan nan 321 324 327 326 322 321 323 324 322 322 323 324 325 323 324 321 nan nan nan nan nan nan
352 351 347 347 345 342 343 356 2 -0 355 349 342 336 331 325 326 327 333 333 325 320 320 319 316 314 310 307 305 nan nan nan nan nan nan nan nan nan nan nan nan nan nan nan nan nan nan nan nan nan nan nan nan nan nan nan nan nan nan nan nan nan nan nan 322 322 321 320 321 321 323 322 322 324 325 326 325 323 321 319 nan nan nan nan nan
345 347 353 355 346 342 348 354 357 353 348 343 338 332 327 326 325 330 333 328 322 316 317 317 315 312 309 308 307 304 304 306 nan 304 nan nan nan nan nan nan nan nan nan nan nan nan nan nan nan nan nan nan nan nan nan nan nan nan nan nan nan nan nan nan 319 320 320 320 320 322 324 322 322 325 325 324 323 322 319 317 316 nan nan nan nan
345 345 344 350 353 353 349 343 339 345 346 341 340 340 337 332 333 330 326 321 319 315 315 314 312 310 309 308 305 304 307 309 309 304 302 nan nan nan nan nan nan nan nan nan nan nan nan nan nan nan nan nan nan nan nan nan nan nan nan nan nan nan nan nan 318 319 320 320 322 323 324 322 322 324 324 323 321 320 317 316 315 313 313 314 314
342 343 344 340 338 344 344 340 344 345 344 347 347 345 339 335 334 329 325 322 319 316 314 313 313 313 309 307 305 306 308 307 304 299 296 nan 296 nan nan nan 302 nan nan nan nan nan nan nan nan nan nan nan nan nan nan nan nan nan nan nan nan nan nan 318 318 319 319 320 322 322 322 322 323 323 323 322 320 318 316 317 316 314 312 312 314
336 337 338 338 341 342 345 348 346 344 345 343 340 339 340 339 338 333 328 324 319 318 317 317 316 314 310 309 307 306 305 303 300 295 294 296 297 294 293 nan 298 nan nan nan nan 309 316 nan nan nan nan nan nan nan nan nan nan nan nan nan nan nan 318 318 319 320 320 321 322 322 322 322 322 321 320 321 319 319 316 316 314 311 311 312 314
338 341 334 334 336 337 341 343 344 343 340 338 335 335 334 334 333 328 325 324 321 319 320 320 317 314 311 309 305 300 298 301 299 296 294 294 294 292 290 nan nan 304 308 307 301 302 nan nan nan nan nan nan nan nan nan nan nan nan nan nan nan nan 319 320 322 322 322 322 322 322 321 321 321 324 326 325 323 321 316 315 313 310 312 313 313
338 334 330 332 335 334 334 335 337 338 338 333 333 332 331 330 330 328 325 321 316 322 323 322 318 313 309 307 301 294 297 300 300 299 295 290 288 287 287 291 298 304 305 303 298 nan nan nan nan nan nan nan nan nan nan nan nan nan nan nan nan nan nan nan 324 323 322 321 321 320 320 325 326 326 325 326 326 327 325 318 314 311 313 313 313
327 322 324 324 326 327 323 321 327 328 329 333 334 332 328 326 326 325 324 319 319 324 325 322 319 311 307 306 300 298 298 302 299 292 289 288 284 282 286 293 299 302 304 301 298 298 nan nan nan nan nan nan nan nan 325 329 nan nan nan nan nan nan nan nan nan nan nan nan 318 nan nan 318 318 318 318 321 321 322 322 323 324 323 318 314 313
318 314 309 310 314 315 316 321 322 323 324 326 329 327 326 326 322 322 321 315 319 325 325 321 313 311 310 309 303 295 291 283 272 271 277 285 283 281 285 292 298 303 303 299 300 303 nan nan nan nan nan nan nan 324 328 328 329 nan nan nan nan nan nan nan nan nan nan nan nan nan nan nan nan 314 314 313 315 319 321 321 321 320 320 321 321
305 303 305 307 312 314 313 313 313 317 321 325 325 323 325 324 316 316 316 317 322 324 322 315 310 310 306 293 283 275 270 nan nan 277 280 281 281 280 282 286 296 302 298 300 304 303 nan nan nan nan nan nan 306 315 317 322 325 nan nan nan nan nan nan nan nan nan nan nan nan nan nan nan 312 316 315 313 312 312 314 317 316 316 318 320 321
292 296 298 302 300 299 303 308 312 313 316 316 313 320 319 313 318 322 320 322 320 316 309 304 302 299 296 297 287 280 nan nan nan 282 277 276 280 286 284 280 284 293 299 301 300 302 303 nan nan nan 296 298 308 317 320 322 325 326 nan nan nan nan nan nan nan nan nan nan nan nan 314 312 311 311 312 313 312 312 311 309 310 310 310 310 314
290 291 294 297 301 300 301 301 303 308 307 307 312 317 315 315 316 316 316 313 311 306 302 302 303 303 308 311 306 298 294 nan nan nan 270 272 283 288 283 274 279 295 302 302 300 299 301 nan nan nan 306 307 310 316 319 321 323 324 325 323 nan nan nan nan nan nan nan nan nan 316 314 315 313 312 313 314 312 312 311 311 311 311 309 306 305
287 291 295 296 295 300 304 306 303 299 303 308 314 312 312 313 308 311 309 308 306 304 302 302 304 308 311 309 307 304 291 nan nan nan 270 271 282 287 282 274 279 291 297 295 294 294 nan nan nan 306 308 310 310 317 319 320 321 323 325 319 nan nan nan nan nan nan nan nan 315 nan nan nan nan nan nan 318 315 312 311 313 314 310 306 304 304
284 287 291 292 290 294 297 289 289 296 300 307 305 303 308 308 306 304 305 305 304 307 308 308 309 311 310 302 293 287 284 nan nan nan 277 279 282 285 282 278 282 290 295 295 293 290 292 299 306 311 309 307 309 315 319 322 322 324 321 319 nan nan nan nan nan nan nan nan nan nan nan nan nan nan nan 303 304 309 312 313 311 307 305 nan nan
274 274 273 277 282 284 285 290 291 293 295 294 298 302 302 302 300 298 298 300 303 306 307 307 309 309 300 293 295 297 nan nan nan nan 285 293 306 298 292 283 286 293 297 295 287 288 291 295 298 299 304 314 315 318 322 323 323 324 321 nan nan nan nan nan nan nan nan nan nan nan nan nan nan nan nan 299 301 307 310 310 305 302 nan nan nan
273 279 278 279 281 281 281 282 286 291 294 297 298 300 301 302 302 299 296 298 302 303 307 308 302 297 297 297 294 296 299 292 nan nan 297 307 311 307 293 278 284 293 293 286 285 289 294 299 302 307 315 317 317 318 321 322 321 319 nan nan nan nan nan nan nan nan nan nan nan nan nan nan nan nan nan 300 301 305 309 305 nan nan nan nan nan
255 257 263 270 271 270 272 278 287 293 294 296 297 300 303 305 304 300 299 303 307 310 304 295 297 303 304 298 291 292 297 290 nan 289 305 308 295 281 264 265 285 296 293 289 289 289 288 286 287 299 311 nan 317 313 309 312 nan nan nan nan nan nan nan nan nan nan nan nan nan nan nan nan nan nan nan nan nan nan nan nan nan nan nan nan nan
258 259 260 263 265 272 280 286 288 290 292 293 295 297 301 302 299 299 301 299 300 300 300 302 301 298 295 292 294 nan nan nan nan 304 298 287 286 290 288 287 294 295 291 286 284 286 290 296 299 303 nan nan 311 311 308 311 nan nan nan nan nan nan nan nan nan nan nan nan nan nan nan nan nan nan nan nan nan nan nan nan nan nan nan nan nan
260 261 262 264 265 267 271 277 282 291 292 293 293 295 296 294 286 280 279 286 288 289 289 292 297 296 292 294 296 nan nan nan 290 284 285 286 285 286 287 290 292 294 293 292 291 291 293 298 304 nan nan nan 308 309 nan nan nan nan nan nan nan nan nan nan nan nan nan nan nan nan nan nan nan nan nan nan nan nan nan nan nan nan nan nan nan
259 262 266 269 271 273 276 274 276 280 281 283 285 286 282 279 278 281 281 283 285 284 284 291 296 296 298 300 297 nan nan nan nan 286 288 283 276 271 271 279 279 276 279 286 294 300 305 309 307 nan nan 306 nan nan nan nan nan nan nan nan nan nan nan nan nan nan nan nan nan nan nan nan nan nan nan nan nan nan nan nan nan nan nan nan nan
260 265 269 271 274 276 279 281 280 279 281 283 285 286 283 280 280 283 282 281 283 287 290 295 299 298 nan nan 282 nan nan 283 289 291 289 285 279 278 285 289 290 287 287 291 296 301 303 nan nan nan nan nan nan nan nan nan nan nan nan nan nan nan nan nan nan nan nan nan nan nan nan nan nan nan nan nan nan nan nan nan nan nan nan nan nan
265 268 270 272 277 280 279 277 278 278 279 282 284 285 286 287 289 286 285 286 286 286 291 297 298 295 nan 289 286 284 289 292 295 294 286 280 279 289 291 288 283 282 283 288 296 302 nan 307 nan nan nan nan nan nan nan nan nan nan nan nan nan nan nan nan nan nan nan nan nan nan nan nan nan nan nan nan nan nan nan nan nan nan nan nan nan
264 268 271 273 276 276 275 273 273 276 279 282 284 286 286 288 288 288 286 286 286 285 287 290 nan 293 292 289 290 nan 290 nan nan 290 285 282 287 291 289 286 285 285 287 294 nan nan 306 307 307 nan nan nan nan nan nan nan nan nan nan nan nan nan nan nan nan nan nan nan nan nan nan nan nan nan nan nan nan nan nan nan nan nan nan nan nan
257 265 272 275 277 276 274 273 274 277 278 279 279 279 283 284 284 285 284 283 283 282 283 286 nan nan nan nan nan nan nan nan nan 285 280 274 278 284 285 287 288 287 290 300 306 308 307 nan nan nan nan nan nan nan nan nan nan nan nan nan nan nan nan nan nan nan nan nan nan nan nan nan nan nan nan nan nan nan nan nan nan nan nan nan nan
266 267 270 272 273 273 273 275 279 279 280 281 281 283 285 285 283 282 280 279 280 284 288 292 297 nan 292 nan 298 nan nan nan nan 277 276 275 279 nan nan nan nan nan 294 303 nan nan nan nan nan nan nan nan nan nan nan nan nan nan nan nan nan nan nan nan nan nan nan nan nan nan nan nan nan nan nan nan nan nan nan nan nan nan nan nan nan
259 263 267 272 273 273 274 278 280 281 281 282 283 285 287 286 285 284 283 282 283 nan nan nan nan nan nan nan nan nan nan nan nan nan nan nan nan nan nan nan nan nan nan nan nan nan nan nan nan nan nan nan nan nan nan nan nan nan nan nan nan nan nan nan nan nan nan nan nan nan nan nan nan nan nan nan nan nan nan nan nan nan nan nan nan
261 268 273 275 277 281 282 282 283 283 285 286 287 287 286 285 285 284 284 nan nan nan nan nan nan nan nan nan nan nan nan nan nan nan nan nan nan nan nan nan nan nan nan nan nan nan nan nan nan nan nan nan nan nan nan nan nan nan nan nan nan nan nan nan nan nan nan nan nan nan nan nan nan nan nan nan nan nan nan nan nan nan nan nan nan
267 274 278 281 283 286 287 286 286 286 287 287 287 287 286 286 286 286 287 nan nan nan nan nan nan nan nan nan nan nan nan nan nan nan nan nan nan nan nan nan nan nan nan nan nan nan nan nan nan nan nan nan nan nan nan nan nan nan nan nan nan nan nan nan nan nan nan nan nan nan nan nan nan nan nan nan nan nan nan nan nan nan nan nan nan